Weather History for Lewisburg, WV

Change the Weather History Date:

Friday, January 24, 2014

  Actual Average Record
Temperature  
Mean Temperature 3 °F 29 °F  
Max Temperature 14 °F 39 °F 55 °F (2010)
Min Temperature -8 °F 18 °F -16 °F (1963)
Degree Days  
Heating Degree Days 62    
Month to date heating degree days 980  
Cooling Degree Days 0    
Month to date cooling degree days 0  
Year to date cooling degree days 0  
Moisture  
Dew Point -9 °F    
Average Humidity 61    
Maximum Humidity 79    
Minimum Humidity 42    
Precipitation  
Precipitation T in 0.10 in 0.00 in (2014)
Month to date precipitation 0.94 2.45  
Year to date precipitation 0.94 2.45  
Snow  
Snow T in - - ()
Month to date snowfall 10.6  
Snow Depth 3.00 in    
Sea Level Pressure  
Sea Level Pressure 30.28 in    
Wind  
Wind Speed 4 mph (SW)    
Max Wind Speed 7 mph    
Max Gust Speed -    
Visibility 9 miles    
Events Snow    
T = Trace of Precipitation, MM = Missing Value Source: NWS Daily Summary

Daily Weather History Graph

Daily Weather History Graph

Search for Another Location

Airport:

Trip Planner

Search our weather history database for the weather conditions in past years. The results will help you decide how hot, cold, wet, or windy it might be!

Date:

Astronomy

Jan. 24, 2014 Rise Set
Actual Time 7:31 AM EST 5:36 PM EST
Civil Twilight 7:03 AM EST 6:04 PM EST
Nautical Twilight 6:31 AM EST 6:36 PM EST
Astronomical Twilight 6:00 AM EST 7:07 PM EST
Moon 12:58 AM EST (1/24) 11:52 AM EST (1/24)
Length of Visible Light 11h 00m
Length of Day
10h 04m
Last Quarter, 45% of the Moon is Illuminated
Jan 24
Last Quarter
Jan 30
New
Feb 6
First Quarter
Feb 14
Full
Feb 22
Last Quarter

Hourly Weather History & Observations

Time (EST) Temp. Windchill Dew Point Humidity Pressure Visibility Wind Dir Wind Speed Gust Speed Precip Events Conditions
12:15 AM -0.4 °F -8.3 °F -7.2 °F 73% 30.37 in 7.0 mi WSW 3.5 mph - N/A Snow Light Snow
12:35 AM -0.9 °F - -7.6 °F 73% 30.37 in 7.0 mi Calm Calm - N/A   Overcast
12:55 AM -1.1 °F -9.1 °F -7.6 °F 74% 30.37 in 10.0 mi WSW 3.5 mph - N/A   Overcast
1:15 AM -1.1 °F -11.2 °F -7.6 °F 74% 30.36 in 10.0 mi WSW 4.6 mph - N/A   Overcast
1:35 AM -1.5 °F -11.6 °F -7.8 °F 75% 30.36 in 10.0 mi WSW 4.6 mph - N/A   Overcast
1:55 AM -1.7 °F -11.8 °F -8.3 °F 73% 30.37 in 10.0 mi WSW 4.6 mph - N/A   Overcast
2:15 AM -2.0 °F -13.9 °F -9.2 °F 71% 30.37 in 10.0 mi WSW 5.8 mph - N/A   Overcast
2:35 AM -2.2 °F -12.5 °F -9.4 °F 71% 30.38 in 10.0 mi WSW 4.6 mph - N/A   Overcast
2:55 AM -2.2 °F -14.2 °F -9.4 °F 71% 30.39 in 10.0 mi SW 5.8 mph - N/A   Overcast
3:15 AM -2.4 °F -17.1 °F -9.4 °F 72% 30.40 in 10.0 mi WSW 8.1 mph - N/A   Overcast
3:35 AM -2.4 °F -15.8 °F -9.4 °F 72% 30.40 in 10.0 mi WSW 6.9 mph - N/A   Overcast
3:55 AM -3.6 °F -15.9 °F -10.1 °F 74% 30.40 in 7.0 mi SSW 5.8 mph - N/A Snow Light Snow
4:15 AM -4.9 °F -15.6 °F -10.5 °F 77% 30.40 in 5.0 mi South 4.6 mph - N/A Snow Light Snow
4:35 AM -4.2 °F -12.6 °F -9.8 °F 77% 30.41 in 4.0 mi South 3.5 mph - N/A Snow Light Snow
4:55 AM -4.0 °F -12.4 °F -9.8 °F 76% 30.42 in 4.0 mi South 3.5 mph - N/A Snow Light Snow
5:15 AM -3.6 °F -14.1 °F -9.2 °F 77% 30.42 in 4.0 mi South 4.6 mph - N/A Snow Light Snow
5:35 AM -3.8 °F -14.4 °F -9.8 °F 76% 30.43 in 5.0 mi SSW 4.6 mph - N/A Snow Light Snow
5:55 AM -4.4 °F -16.7 °F -10.3 °F 76% 30.43 in 5.0 mi SSW 5.8 mph - N/A Snow Light Snow
6:15 AM -4.9 °F -17.4 °F -10.7 °F 76% 30.44 in 7.0 mi SSW 5.8 mph - N/A Snow Light Snow
6:35 AM -4.9 °F -18.8 °F -11.2 °F 74% 30.44 in 10.0 mi SSW 6.9 mph - N/A Snow Light Snow
6:55 AM -6.3 °F -19.1 °F -12.1 °F 76% 30.44 in 10.0 mi SW 5.8 mph - N/A   Clear
7:15 AM -6.7 °F -15.5 °F -12.6 °F 75% 30.45 in 10.0 mi SW 3.5 mph - N/A   Clear
7:35 AM -6.7 °F - -11.6 °F 79% 30.45 in 10.0 mi Calm Calm - N/A   Scattered Clouds
7:55 AM -5.8 °F - -10.8 °F 79% 30.45 in 10.0 mi Calm Calm - N/A   Scattered Clouds
8:15 AM -5.8 °F -14.5 °F -10.8 °F 79% 30.44 in 10.0 mi SSW 3.5 mph - N/A   Clear
8:35 AM -5.8 °F - -11.0 °F 78% 30.45 in 5.0 mi Calm Calm - N/A Snow Light Snow
8:55 AM -4.7 °F -13.2 °F -10.3 °F 77% 30.43 in 4.0 mi South 3.5 mph - N/A Snow Light Snow
9:15 AM -3.1 °F -11.4 °F -9.6 °F 74% 30.42 in 10.0 mi South 3.5 mph - N/A   Clear
9:35 AM -3.1 °F -11.4 °F -10.1 °F 72% 30.42 in 10.0 mi SSW 3.5 mph - N/A   Clear
9:55 AM -1.3 °F -11.4 °F -9.6 °F 68% 30.42 in 10.0 mi SW 4.6 mph - N/A   Clear
10:15 AM -0.2 °F -10.1 °F -9.4 °F 65% 30.42 in 10.0 mi SSW 4.6 mph - N/A   Clear
10:35 AM 0.1 °F -12.8 °F -9.4 °F 64% 30.42 in 10.0 mi SSW 6.9 mph - N/A   Clear
10:55 AM 1.2 °F -11.5 °F -9.0 °F 62% 30.41 in 10.0 mi SW 6.9 mph - N/A   Clear
11:15 AM 1.8 °F -9.5 °F -8.7 °F 62% 30.40 in 10.0 mi SSW 5.8 mph - N/A   Clear
11:35 AM 3.2 °F -9.1 °F -8.1 °F 59% 30.40 in 10.0 mi WSW 6.9 mph - N/A   Clear
11:55 AM 4.6 °F -7.4 °F -7.6 °F 57% 30.39 in 10.0 mi WSW 6.9 mph - N/A   Clear
12:15 PM 5.2 °F -7.9 °F -6.7 °F 58% 30.38 in 10.0 mi SSW 8.1 mph - N/A   Clear
12:35 PM 6.3 °F -6.5 °F -6.9 °F 55% 30.36 in 10.0 mi SSW 8.1 mph - N/A   Clear
12:55 PM 7.5 °F -3.9 °F -6.7 °F 52% 30.34 in 10.0 mi SSW 6.9 mph - N/A   Clear
1:15 PM 8.6 °F -1.3 °F -6.0 °F 52% 30.33 in 10.0 mi SW 5.8 mph - N/A   Clear
1:35 PM 9.0 °F -0.9 °F -6.3 °F 50% 30.32 in 10.0 mi SW 5.8 mph - N/A   Clear
1:55 PM 9.7 °F 1.4 °F -5.8 °F 50% 30.31 in 10.0 mi SSW 4.6 mph - N/A   Clear
2:15 PM 12.6 °F 0.2 °F -6.7 °F 42% 30.29 in 10.0 mi WSW 9.2 mph - N/A   Clear
2:35 PM 12.2 °F 1.7 °F -7.8 °F 41% 30.28 in 10.0 mi WSW 6.9 mph - N/A   Clear
2:55 PM 11.5 °F 3.5 °F -6.7 °F 44% 30.26 in 10.0 mi SW 4.6 mph - N/A   Clear
3:15 PM 12.4 °F 4.6 °F -7.2 °F 41% 30.25 in 10.0 mi SW 4.6 mph - N/A   Clear
3:35 PM 13.1 °F 5.4 °F -7.2 °F 40% 30.23 in 10.0 mi SW 4.6 mph - N/A   Clear
3:55 PM 12.6 °F 3.4 °F -6.9 °F 42% 30.22 in 10.0 mi SSW 5.8 mph - N/A   Clear
4:15 PM 13.6 °F 6.0 °F -6.2 °F 41% 30.20 in 10.0 mi SW 4.6 mph - N/A   Clear
4:35 PM 12.9 °F 3.8 °F -6.9 °F 41% 30.19 in 10.0 mi SSW 5.8 mph - N/A   Clear
4:55 PM 12.7 °F 5.0 °F -7.2 °F 41% 30.19 in 10.0 mi SSW 4.6 mph - N/A   Clear
5:15 PM 11.7 °F 3.7 °F -8.0 °F 41% 30.17 in 10.0 mi South 4.6 mph - N/A   Clear
5:35 PM 11.3 °F 5.1 °F -8.1 °F 41% 30.17 in 10.0 mi South 3.5 mph - N/A   Clear
5:55 PM 10.6 °F - -8.3 °F 42% 30.16 in 10.0 mi Calm Calm - N/A   Clear
6:15 PM 10.4 °F - -8.3 °F 43% 30.16 in 10.0 mi Calm Calm - N/A   Clear
6:35 PM 8.6 °F 2.0 °F -8.1 °F 47% 30.15 in 10.0 mi South 3.5 mph - N/A   Clear
6:55 PM 10.8 °F 4.5 °F -8.7 °F 41% 30.14 in 10.0 mi SSE 3.5 mph - N/A   Clear
7:15 PM 10.6 °F - -9.6 °F 40% 30.13 in 10.0 mi Calm Calm - N/A   Clear
7:35 PM 8.8 °F - -6.2 °F 51% 30.12 in 10.0 mi Calm Calm - N/A   Clear
7:55 PM 5.7 °F - -6.3 °F 58% 30.11 in 10.0 mi Calm Calm - N/A   Clear
8:15 PM 4.3 °F - -7.4 °F 58% 30.09 in 10.0 mi Calm Calm - N/A   Clear
8:35 PM 4.6 °F -2.5 °F -5.8 °F 62% 30.08 in 10.0 mi North 3.5 mph - N/A   Clear
8:55 PM 1.8 °F - -7.6 °F 65% 30.06 in 10.0 mi Calm Calm - N/A   Clear
9:15 PM 0.3 °F - -7.2 °F 70% 30.05 in 10.0 mi Calm Calm - N/A   Clear
9:35 PM 0.1 °F - -7.2 °F 71% 30.05 in 10.0 mi Calm Calm - N/A   Clear
9:55 PM -2.0 °F -10.1 °F -9.4 °F 71% 30.03 in 10.0 mi NNE 3.5 mph - N/A   Clear
10:15 PM -2.2 °F - -9.4 °F 71% 30.02 in 10.0 mi Calm Calm - N/A   Clear
10:35 PM -2.2 °F -10.4 °F -8.9 °F 73% 30.01 in 10.0 mi NE 3.5 mph - N/A   Clear
10:55 PM -0.6 °F - -8.3 °F 70% 30.00 in 10.0 mi Calm Calm - N/A   Clear
11:15 PM -2.6 °F - -9.6 °F 72% 29.99 in 10.0 mi Calm Calm - N/A   Clear
11:35 PM -3.6 °F - -9.4 °F 76% 29.98 in 10.0 mi Calm Calm - N/A   Clear
11:55 PM -3.6 °F - -9.9 °F 74% 29.96 in 10.0 mi Calm Calm - N/A   Clear